Погода в Хобарте

Австралия     42°49′07″S   147°17′50″E
темп.,
°C
ветер,
м/с
пор.,
м/с
влажн.,
%
обл.,
%
осадки,
мм/ч
давл.,
гПа
погр.,
м
1 июля, пт
пт101:00+2зсз22895 0.0 103038
04:00+1зсз22915 0.0 103039
07:000зсз22925 0.0 103134
10:00+5сз23695 0.0 1032220
13:00+10сз125611 0.0 1030858
16:00+8ссз116830 0.0 102913
19:00+4зсз228320 0.0 103018
22:00+3зсз22895 0.0 103134
2 июля, сб
сб201:00+2зсз22935 0.0 103044
04:00+1зсз229470 0.0 103047
07:00+1зсз229323 0.0 103048
10:00+6зсз22695 0.0 1030182
13:00+10зсз12554 0.0 1028929
16:00+8сз11674 0.0 102813
19:00+4з11853 0.0 102912
22:00+2зсз22914 0.0 103026
3 июля, вс
вс301:00+2зсз22932 0.0 103039
04:00+1зсз23941 0.0 103051
07:00+1зсз23945 0.0 103067
10:00+5зсз34715 0.0 1030187
13:00+11зсз235630 0.0 1028456
16:00+9сз116910 0.0 102716
19:00+5зсз11875 0.0 102812
22:00+4зсз229283 0.0 102843
4 июля, пн
пн401:00+4зсз23926 0.0 102858
04:00+4зсз238771 0.0 102782
07:00+4зсз229120 0.0 102747
10:00+7сз2375100 0.0 1026131
13:00+11сз246644 0.0 1024470
16:00+10з277323 0.1 1023347
19:00+6сз228732 0.0 102334
22:00+7сз248384 0.0 102399
5 июля, вт
вт501:00+7зсз248199 0.0 1021121
04:00+5зсз2393100 0.0 102158
07:00+5зсз2491100 0.0 102168
10:00+7юв1193100 0.6 102376
13:00+7юв1390100 0.2 1024267
16:00+6ююв137784 0.2 1026166
19:00+3ю118248 0.0 102917
22:00+2зюз11845 0.0 103110